www.pogodaiklimat.ru

Погода и климат >> Архив погоды >> Австрия >> Инсбрук АМС


ПОГОДА в Инсбруке АМС

  • Прогноз погоды в Инсбруке АМС
  • Монитор погоды в Инсбруке АМС

АРХИВ ПОГОДЫ в Инсбруке АМС

Время (UTC), дата Ветер
(напр.,м/с)
 
Видим.   Явления Облачность Т
(С)
Тd
(С)
f
(%)
Тe
(С)
Тes
(С)
Комфортность P
(гПа)
Po
(гПа)
Тmin
(С)
Tmax
(С)
R
(мм)
R24
(мм)
S
(см)
07 11.07 З 1 н/о н/о +13.2 +8.5 73 +13 +13 1017.7 949.8
08 11.07 СЗ 1 н/о н/о +15.4 +9.2 67 +16 +16 1016.4 949.1
09 11.07 штиль 0 н/о н/о +17.5 +10.1 62 +18 +18 1015.3 948.6
10 11.07 штиль 0 н/о н/о +18.7 +9.4 55 +19 +19 1014.2 947.8
11 11.07 З 2 н/о н/о +19.6 +10.2 55 +21 +21 комфорт 1014.0 947.8
12 11.07 З 8 дождь н/о +16.6 +11.6 72 +15 +15 1015.0 948.1 0.0
13 11.07 СЗ 2 н/о в посл. час осадки н/о +17.0 +11.2 69 +17 +17 1015.0 948.2 0.0
14 11.07 штиль 0 н/о осадки н/о +17.6 +11.7 68 +18 +18 1014.9 948.2 0.2
15 11.07 ЮВ 1 н/о осадки {ливн. осадки} н/о +17.5 +11.1 66 +19 +19 1014.8 948.1 0.3
16 11.07 ЮЗ 2 н/о осадки н/о +15.2 +13.0 87 +15 +15 1015.8 948.6 1
17 11.07 ЮВ 1 н/о осадки н/о +15.3 +13.7 90 +16 +16 1015.8 948.6 0.8
18 11.07 штиль 0 н/о ливневой дождь н/о +15.6 +13.5 87 +15 +15 1015.8 948.7 +11.9 +19.8 2
19 11.07 З 1 н/о ливневой дождь н/о +15.0 +13.6 91 +15 +15 1016.0 948.7 0.1
20 11.07 Ю 2 н/о н/о +14.2 +13.2 94 +14 +14 1016.5 949.0
21 11.07 ЮЗ 1 н/о {ливн. осадки} н/о +13.3 +12.4 94 +13 +13 1016.8 949.1 0.1
22 11.07 З 1 н/о н/о +12.6 +11.9 95 +13 +13 1017.1 949.2
23 11.07 З 1 н/о н/о +12.6 +12.0 96 +13 +13 1017.2 949.3
00 12.07 З 1 н/о {ливн. осадки} н/о +13.0 +12.2 95 +13 +13 1016.9 949.1 0.1
01 12.07 Ю 1 н/о н/о +13.0 +12.3 96 +13 +13 1016.7 948.9
02 12.07 штиль 0 н/о н/о +13.0 +12.3 96 +12 +12 1016.5 948.7
03 12.07 ЮЗ 2 н/о н/о +12.9 +12.2 96 +12 +12 1016.2 948.4
04 12.07 З 1 н/о в посл. час осадки н/о +13.0 +12.5 97 +13 +13 1016.7 948.9 0.3
05 12.07 ЮЗ 1 н/о в посл. час осадки н/о +13.2 +12.5 96 +13 +13 1016.5 948.8 0.1
06 12.07 З 3 н/о в посл. час осадки {ливн. осадки} н/о +13.5 +12.7 95 +12 +12 1016.8 949.1 +12.5 +15.7 0.6
07 12.07 ЮЗ 1 н/о ливневой дождь {осадки} н/о +13.6 +12.7 94 +14 +14 1017.0 949.3 0.4
08 12.07 СЗ 1 н/о в посл. час осадки н/о +14.4 +12.5 88 +15 +15 1016.5 949.0 0.1
09 12.07 З 3 н/о {ливн. осадки} н/о +15.4 +13.4 88 +15 +15 1016.2 949.0 0.5
10 12.07 З 3 н/о осадки н/о +15.3 +12.9 86 +15 +15 1016.1 948.9 0.2
11 12.07 З 4 н/о осадки н/о +15.2 +12.9 86 +14 +14 1016.4 949.1 0.1
12 12.07 З 7 н/о осадки {ливн. осадки} н/о +14.5 +12.7 89 +12 +12 1016.7 949.3 3
13 12.07 З 3 н/о осадки н/о +15.0 +13.6 91 +14 +14 1016.5 949.2 2
14 12.07 З 2 н/о н/о +16.5 +13.7 84 +17 +17 1015.9 949.0 0.0
15 12.07 З 3 н/о {осадки} н/о +17.2 +12.9 76 +17 +17 1014.9 948.2 2
16 12.07 СЗ 2 н/о н/о +18.4 +13.2 72 +19 +19 1013.5 947.1
17 12.07 З 1 н/о н/о +17.4 +13.2 76 +18 +18 1013.4 946.8
18 12.07 ЮЗ 6 н/о осадки н/о +15.9 +13.5 86 +15 +15 1014.2 947.3 +13.4 +18.8 6
19 12.07 В 1 н/о осадки н/о +15.0 +13.9 93 +15 +15 1013.9 946.8 1
20 12.07 З 3 н/о осадки н/о +14.6 +13.8 95 +14 +14 1015.9 948.6 5
21 12.07 В 2 н/о осадки {ливн. осадки} н/о +14.3 +13.7 96 +14 +14 1015.6 948.2 10
22 12.07 В 2 н/о ливневой дождь {осадки} н/о +14.0 +13.3 96 +13 +13 1015.7 948.2 0.7
23 12.07 С 1 н/о осадки н/о +13.3 +12.6 96 +13 +13 1016.5 948.8 2
00 13.07 В 4 н/о в посл. час осадки {ливн. осадки} н/о +13.0 +12.4 96 +11 +11 1016.6 948.8 16
01 13.07 С 1 н/о ливневой дождь {осадки} н/о +12.9 +12.1 95 +13 +13 1016.2 948.4 3
02 13.07 штиль 0 н/о в посл. час осадки н/о +12.9 +12.4 97 +12 +12 1015.8 948.0 2
03 13.07 штиль 0 н/о осадки {ливн. осадки} н/о +12.9 +12.5 97 +12 +12 1016.4 948.6 7
04 13.07 ЮВ 2 н/о в посл. час осадки н/о +13.0 +12.6 97 +12 +12 1016.5 948.7 0.5
05 13.07 ЮЗ 1 н/о н/о +13.0 +12.5 97 +13 +13 1016.3 948.5 0.0
06 13.07 СВ 2 н/о {ливн. осадки} н/о +13.7 +12.4 92 +13 +13 1016.2 948.6 +12.8 +16.5 24
07 13.07 ЮЗ 3 н/о н/о +14.1 +12.2 88 +13 +13 1016.4 948.9 0.0
08 13.07 С 2 н/о в посл. час осадки н/о +14.6 +11.6 82 +14 +14 1016.2 948.8 0.1
09 13.07 СВ 3 н/о осадки н/о +15.0 +12.0 82 +14 +14 1016.4 949.1 0.2
10 13.07 штиль 0 н/о ливневой дождь н/о +15.9 +11.5 75 +16 +16 1016.7 949.5 0.2
11 13.07 З 2 н/о н/о +17.1 +12.6 75 +17 +17 1015.8 949.0 0.0
12 13.07 В 1 н/о {ливн. осадки} н/о +18.9 +11.1 61 +21 +21 комфорт 1015.2 948.8 0.4
14 13.07 СВ 2 н/о н/о +19.2 +9.7 54 +21 +21 комфорт 1015.1 948.7
15 13.07 Ю 3 н/о н/о +18.7 +11.4 63 +20 +20 1015.5 949.0
17 13.07 ЮВ 2 н/о н/о +17.0 +11.3 69 +17 +17 1016.5 949.6
18 13.07 СВ 2 н/о н/о +16.6 +11.2 70 +17 +17 1016.7 949.7 +13.4 +19.8 0.4
19 13.07 В 1 н/о н/о +15.3 +11.5 78 +16 +16 1017.2 949.9
20 13.07 ЮВ 1 н/о н/о +15.3 +11.0 76 +16 +16 1017.8 950.4
21 13.07 Ю 1 н/о н/о +14.6 +11.6 82 +15 +15 1018.3 950.7 0.0
22 13.07 В 2 н/о н/о +14.3 +11.3 82 +14 +14 1018.5 950.9
23 13.07 В 1 н/о осадки н/о +13.6 +11.6 88 +14 +14 1019.1 951.3 0.4
00 14.07 штиль 0 н/о в посл. час осадки н/о +13.4 +12.4 94 +13 +13 1018.8 951.0 0.4
01 14.07 Ю 1 н/о в посл. час осадки н/о +13.2 +12.4 95 +13 +13 1018.6 950.7 0.1
02 14.07 ЮЗ 1 н/о н/о +13.0 +12.2 95 +13 +13 1018.0 950.1 0.0
03 14.07 Ю 1 н/о {осадки} н/о +12.9 +12.1 95 +13 +13 1017.9 950.0 0.1
04 14.07 З 2 н/о н/о +13.0 +12.4 96 +12 +12 1017.7 949.8
05 14.07 З 2 н/о н/о +13.1 +12.3 95 +12 +12 1017.3 949.5 0.0
06 14.07 З 1 н/о {осадки} н/о +13.4 +12.0 91 +14 +14 1016.9 949.2 +12.7 +16.7 0.5
07 14.07 ЮЗ 1 н/о н/о +14.8 +11.6 81 +15 +15 1016.5 949.1
08 14.07 штиль 0 н/о н/о +15.8 +11.6 76 +16 +16 1016.1 949.0
09 14.07 В 2 н/о н/о +16.5 +11.4 72 +17 +17 1015.8 948.8
10 14.07 ЮВ 2 н/о н/о +17.6 +11.9 69 +18 +18 1015.2 948.5
11 14.07 В 3 н/о н/о +18.3 +11.2 63 +19 +19 1014.7 948.2
12 14.07 В 2 н/о н/о +19.6 +12.3 63 +22 +22 комфорт 1013.6 947.5
13 14.07 В 3 н/о н/о +20.7 +10.3 51 +23 +23 комфорт 1012.6 946.7
14 14.07 СВ 3 н/о н/о +21.5 +9.2 45 +23 +23 комфорт 1011.7 946.0
15 14.07 В 6 н/о н/о +21.3 +10.7 51 +23 +23 комфорт 1011.5 945.8
16 14.07 В 6 н/о н/о +20.5 +9.8 50 +22 +22 комфорт 1011.7 945.8
17 14.07 В 4 н/о н/о +20.0 +10.6 55 +22 +22 комфорт 1011.9 945.9
18 14.07 В 3 н/о н/о +19.6 +9.1 51 +21 +21 комфорт 1012.5 946.4 +13.3 +22.4
19 14.07 В 1 н/о н/о +18.0 +11.4 65 +19 +19 1013.2 946.7
20 14.07 СВ 2 н/о н/о +16.8 +11.6 71 +17 +17 1013.9 947.1
21 14.07 В 3 н/о н/о +15.9 +10.9 72 +15 +15 1014.3 947.3
22 14.07 Ю 2 н/о н/о +15.5 +11.0 75 +15 +15 1014.6 947.5
23 14.07 Ю 2 н/о н/о +14.2 +10.7 79 +14 +14 1014.8 947.4
00 15.07 В 3 н/о н/о +13.9 +10.2 78 +13 +13 1014.5 947.0
01 15.07 ЮВ 3 н/о н/о +12.9 +10.1 83 +12 +12 1015.1 947.3
02 15.07 В 3 н/о н/о +12.5 +10.0 85 +11 +11 1015.3 947.4
03 15.07 В 3 н/о н/о +12.4 +10.0 85 +11 +11 1015.0 947.1
04 15.07 ЮВ 1 н/о н/о +12.3 +10.0 86 +12 +12 1014.9 947.0
05 15.07 В 2 н/о н/о +12.2 +9.9 86 +11 +11 1014.9 947.0
06 15.07 ЮВ 2 н/о н/о +13.6 +10.2 80 +13 +13 1014.9 947.3 +12.1 +19.7
07 15.07 В 1 н/о н/о +15.0 +10.7 75 +16 +16 1014.7 947.5
08 15.07 В 2 н/о н/о +17.4 +11.6 69 +18 +18 1014.0 947.4
09 15.07 В 1 н/о н/о +18.7 +11.0 61 +20 +20 1013.3 947.0
10 15.07 Ю 1 н/о н/о +20.3 +11.8 58 +23 +23 комфорт 1012.5 946.6
11 15.07 В 3 н/о н/о +20.8 +11.4 55 +23 +23 комфорт 1012.0 946.2
12 15.07 СЗ 2 н/о н/о +22.3 +9.4 44 +24 +24 комфорт 1011.1 945.7
13 15.07 З 7 н/о н/о +23.1 +12.8 52 +26 +26 жарко 1010.8 945.6
14 15.07 З 7 н/о н/о +22.5 +9.6 44 +24 +24 комфорт 1011.0 945.6
15 15.07 СЗ 2 н/о н/о +22.5 +10.1 45 +24 +24 комфорт 1011.1 945.7
16 15.07 В 1 н/о н/о +22.4 +11.4 50 +25 +25 комфорт 1011.4 946.0 0.0
17 15.07 СЗ 2 н/о н/о +21.3 +11.5 54 +23 +23 комфорт 1012.1 946.4 0.0
18 15.07 З 1 н/о н/о +20.3 +11.1 55 +23 +23 комфорт 1012.8 946.9 +13.4 +23.8 0.0
19 15.07 З 1 н/о н/о +18.7 +11.8 64 +20 +20 1013.8 947.5
20 15.07 С 1 н/о н/о +17.6 +10.5 63 +19 +19 1014.8 948.1
21 15.07 В 1 н/о н/о +15.8 +10.6 71 +17 +17 1016.0 948.8
22 15.07 Ю 1 н/о н/о +14.9 +10.9 77 +15 +15 1016.6 949.2
23 15.07 ЮВ 1 н/о н/о +14.7 +10.4 75 +15 +15 1017.0 949.5
00 16.07 СЗ 1 н/о н/о +13.0 +10.2 83 +13 +13 1017.7 949.8
01 16.07 З 2 н/о н/о +12.1 +10.0 87 +11 +11 1018.0 949.9
02 16.07 З 2 н/о н/о +11.8 +9.9 88 +11 +11 1018.3 950.1
03 16.07 ЮЗ 1 н/о н/о +11.7 +9.9 89 +11 +11 1018.5 950.2
04 16.07 З 1 н/о н/о +11.5 +9.8 89 +11 +11 1018.6 950.3
05 16.07 З 1 н/о н/о +12.1 +10.1 88 +12 +12 1018.9 950.7
06 16.07 З 1 н/о н/о +14.3 +10.7 79 +15 +15 1018.3 950.7 +11.0 +20.4
07 16.07 З 1 н/о н/о +16.4 +11.0 70 +17 +17 1017.6 950.5
08 16.07 СЗ 1 н/о н/о +17.9 +11.2 65 +19 +19 1016.7 950.0
09 16.07 С 1 н/о н/о +20.7 +12.2 58 +24 +24 комфорт 1015.3 949.3
10 16.07 штиль 0 н/о н/о +21.8 +10.1 47 +23 +23 комфорт 1014.6 948.8
11 16.07 СЗ 1 н/о н/о +23.4 +9.6 42 +25 +25 комфорт 1013.9 948.5
12 16.07 В 1 н/о н/о +25.4 +11.3 41 +27 +27 жарко 1012.8 947.9
13 16.07 ЮВ 1 н/о н/о +25.7 +8.6 34 +26 +26 жарко 1012.2 947.4
14 16.07 Ю 2 н/о н/о +26.1 +8.7 33 +26 +26 жарко 1011.8 947.1
15 16.07 СВ 3 н/о н/о +25.9 +9.0 34 +26 +26 жарко 1011.5 946.8
16 16.07 В 4 н/о н/о +25.9 +9.1 35 +26 +26 жарко 1011.3 946.6
17 16.07 В 4 н/о н/о +25.2 +9.6 37 +26 +26 жарко 1011.7 946.8
18 16.07 В 6 н/о н/о +23.8 +10.4 43 +25 +25 комфорт 1012.3 947.1 +13.7 +26.3
19 16.07 В 4 н/о н/о +22.7 +10.3 45 +25 +25 комфорт 1013.1 947.6
20 16.07 штиль 0 н/о н/о +20.4 +10.7 54 +22 +22 комфорт 1014.5 948.5
21 16.07 СЗ 1 н/о н/о +18.1 +11.1 64 +19 +19 1015.5 948.9
22 16.07 штиль 0 н/о н/о +16.6 +11.1 70 +17 +17 1016.2 949.2
23 16.07 С 1 н/о н/о +15.1 +10.9 76 +16 +16 1016.6 949.3
00 17.07 СЗ 1 н/о н/о +14.6 +10.9 78 +15 +15 1017.1 949.6
01 17.07 З 2 н/о н/о +13.7 +10.7 82 +13 +13 1017.4 949.7
02 17.07 Ю 1 н/о н/о +12.9 +10.2 84 +13 +13 1017.4 949.5
03 17.07 ЮЗ 1 н/о н/о +12.7 +10.4 86 +13 +13 1017.5 949.5
04 17.07 З 1 н/о н/о +12.2 +10.2 88 +12 +12 1017.6 949.5
05 17.07 З 2 н/о н/о +13.6 +11.1 85 +13 +13 1016.8 949.1
06 17.07 З 1 н/о н/о +15.0 +11.1 77 +16 +16 1016.2 948.9 +11.8 +24.0
07 17.07 З 1 н/о н/о +16.8 +11.6 71 +18 +18 1015.5 948.6
08 17.07 З 2 н/о н/о +18.9 +11.0 60 +20 +20 1014.4 948.0
09 17.07 ЮЗ 1 н/о н/о +21.6 +12.2 55 +24 +24 комфорт 1012.6 947.0
10 17.07 штиль 0 н/о н/о +23.1 +11.6 48 +25 +25 комфорт 1011.4 946.2
11 17.07 ЮВ 1 н/о н/о +24.8 +11.3 43 +26 +26 жарко 1010.3 945.5
12 17.07 В 2 н/о н/о +26.3 +11.6 40 +28 +28 жарко 1009.2 944.8
13 17.07 В 2 н/о н/о +27.6 +11.3 36 +28 +28 жарко 1008.2 944.1
14 17.07 В 3 н/о н/о +27.5 +9.9 33 +28 +28 жарко 1007.8 943.7
15 17.07 В 4 н/о н/о +27.1 +10.5 35 +28 +28 жарко 1007.7 943.5
16 17.07 СВ 3 н/о н/о +26.1 +11.4 40 +27 +27 жарко 1007.9 943.5
17 17.07 В 6 н/о н/о +24.9 +11.9 44 +26 +26 жарко 1008.7 944.0
18 17.07 В 5 н/о н/о +23.5 +12.4 50 +25 +25 комфорт 1009.4 944.4 +14.8 +28.3
19 17.07 Ю 1 н/о н/о +22.4 +12.9 55 +25 +25 комфорт 1010.1 944.8
20 17.07 ЮВ 2 н/о н/о +20.5 +13.9 66 +24 +24 комфорт 1011.2 945.5
21 17.07 ЮВ 3 н/о н/о +19.3 +13.9 71 +21 +21 комфорт 1012.0 946.0
22 17.07 ЮВ 1 н/о н/о +17.6 +13.2 75 +19 +19 1012.8 946.3
23 17.07 З 1 н/о н/о +16.0 +12.5 80 +17 +17 1013.4 946.5
00 18.07 ЮЗ 1 н/о н/о +16.1 +12.4 79 +17 +17 1013.6 946.7
01 18.07 В 1 н/о н/о +16.8 +11.9 73 +18 +18 1013.3 946.6
02 18.07 СЗ 2 н/о н/о +14.3 +11.5 83 +14 +14 1014.0 946.7
03 18.07 СЗ 2 н/о н/о +13.6 +10.9 84 +13 +13 1014.3 946.8
04 18.07 З 1 н/о н/о +13.0 +10.8 86 +13 +13 1014.6 946.9
05 18.07 З 1 н/о н/о +14.1 +11.0 82 +14 +14 1014.4 947.0
06 18.07 З 2 н/о н/о +14.9 +11.4 80 +15 +15 1014.5 947.3 +12.5 +23.9

 

Местоположение метеостанции Инсбрук АМС (Австрия): широта 47.25 долгота 11.35 высота над уровнем моря 579 м.

В архиве по умолчанию представлена погода в Инсбруке АМС за последнюю неделю. Архивные данные за месяц целиком и за предыдущие месяцы, начиная с января 2011 года, Вы можете получить, выбрав интересующий диапазон дат из раскрывающегося списка и нажав кнопку "Ввод!".


*Определитесь, кто Вы:
робот инопланетянин человек

Внимание! Время в таблицах - всемирное. Для получения местного времени необходимо прибавить поправку, которая равна 1 ч.

Смотрите также архив погоды в соседних городах и на ближайших метеорологических станциях:

Погода в Инсбруке (Австрия) (2 км)
Погода в Пачеркофеле (Австрия) (10 км)
Погода в Зефельд-ин-Тироль (Австрия) (16 км)
Погода в Бреннере новая (Австрия) (29 км)
Погода в Гармише (Германия) (33 км)
Погода в Енбахе (Австрия) (33 км)
Погода на Цугшпитце (Германия) (34 км)
Погода в Майрхофене (Австрия) (39 км)
Погода в Ахенкирьхе (Австрия) (39 км)
Погода в Ахенкирьхе (Австрия) (40 км)

Пояснения к столбцам:

Ветер - указаны скорость ветра в м/с - средняя за 10 мин, порывы в срок и между сроками (в фигурных скобках) и направление, откуда дует ветер: С - северный, СВ - северо-восточный, В - восточный, ЮВ - юго-восточный, Ю - южный, ЮЗ - юго-западный, З - западный, СЗ - северо-западный.
Видимость - горизонтальная дальность видимости в метрах или километрах. При видимости от 1 до 10 км при отсутствии осадков обычно наблюдается дымка, при ухудшении видимости до 1 км и менее - туман. В сухую погоду видимость может ухудшаться дымом, пылью или мглою.
Явления - указаны атмосферные явления, наблюдавшиеся в срок или в последний час перед сроком; фигурными скобками обозначены явления, наблюдавшиеся между сроками (за 1-3 часа до срока); квадратными скобками обозначены град или гололедные отложения с указанием их диаметра в мм.
Облачность - указаны через наклонную черту общая и нижняя облачность в баллах и высота нижней границы облаков в метрах; квадратными скобками обозначены формы облаков: Ci - перистые, Cs - перисто-слоистые, Cc - перисто-кучевые, Ac - высококучевые, As - высокослоистые, Sc - слоисто-кучевые, Ns - слоисто-дождевые, Cu - кучевые, Cb - кучево-дождевые. Подробнее классификацию облаков см. в Атласе облаков (PDF).
T - Температура воздуха - температура, измеренная на высоте 2 м над землей.
Td - Температура точки росы - температура, при понижении до которой содержащийся в воздухе водяной пар достигнет насыщения.
f - Относительная влажность воздуха - влажноcть воздуха, измеренная на высоте 2 м над землей.
Te - Эффективная температура - температура, которую ощущает одетый по сезону человек в тени. Характеристика душности погоды. При расчете учитывается влияние влажности воздуха и скорости ветра на теплоощущения человека.
Tes - Эффективная температура на солнце - температура, которую ощущает человек, с поправкой на солнечный нагрев. Характеристика знойности погоды. Зависит от высоты солнца над горизонтом, облачности и скорости ветра. Ночью, в пасмурную погоду, а также при ветре 12 м/с и более поправка равна нулю.
P - Атмосферное давление - приведенное к уровню моря атмосферное давление.
Po - Атмосферное давление - измеренное на уровне метеостанции атмосферное давление.
Tmin - Минимальная температура - минимум температуры воздуха на высоте 2 м над землей.
Tmax - Максимальная температура - максимум температуры воздуха на высоте 2 м над землей.
R - Количество осадков - Количество выпавших осадков за период времени, мм. При наведении курсора мыши на число - период времени, за который выпало указанное количество осадков.
R24 - Количество осадков - Количество выпавших осадков за 24 часа, мм.
S - Снежный покров - Высота снежного покрова, см. При наведении курсора мыши на число - состояние снежного покрова и степень покрытия местности в баллах.